Time,TemperatureF,DewpointF,PressureIn,WindDirection,WindDirectionDegrees,WindSpeedMPH,WindSpeedGustMPH,Humidity,HourlyPrecipIn,Conditions,Clouds,dailyrainin,SoftwareType,DateUTC
2013-04-02 00:00:00,26.9,14.5,30.08,WSW,254,0.0,2.0,59,0.00,,,0.00,Wunderground v.1.15,2013-04-02 04:00:00,
2013-04-02 00:05:00,26.9,14.1,30.08,WSW,254,0.0,2.0,58,0.00,,,0.00,Wunderground v.1.15,2013-04-02 04:05:00,
2013-04-02 00:10:00,26.9,14.5,30.08,WSW,256,0.0,2.0,59,0.00,,,0.00,Wunderground v.1.15,2013-04-02 04:10:00,
2013-04-02 00:15:00,26.7,14.3,30.07,WSW,256,0.0,2.0,59,0.00,,,0.00,Wunderground v.1.15,2013-04-02 04:15:00,
2013-04-02 00:20:00,26.7,14.3,30.07,WSW,256,0.0,2.0,59,0.00,,,0.00,Wunderground v.1.15,2013-04-02 04:20:00,
2013-04-02 00:25:00,26.6,13.8,30.07,WSW,256,1.0,2.0,58,0.00,,,0.00,Wunderground v.1.15,2013-04-02 04:25:00,
2013-04-02 00:30:00,26.6,13.8,30.07,WSW,256,0.0,2.0,58,0.00,,,0.00,Wunderground v.1.15,2013-04-02 04:30:00,
2013-04-02 00:35:00,26.4,13.6,30.07,WSW,256,0.0,2.0,58,0.00,,,0.00,Wunderground v.1.15,2013-04-02 04:35:00,
2013-04-02 00:40:00,26.4,13.2,30.07,WSW,256,0.0,2.0,57,0.00,,,0.00,Wunderground v.1.15,2013-04-02 04:40:00,
2013-04-02 00:50:00,26.6,13.4,30.08,WNW,282,0.0,2.0,57,0.00,,,0.00,Wunderground v.1.15,2013-04-02 04:50:00,
2013-04-02 00:55:00,26.6,13.4,30.08,NW,304,0.0,2.0,57,0.00,,,0.00,Wunderground v.1.15,2013-04-02 04:55:00,
2013-04-02 01:00:00,26.6,13.4,30.07,WNW,298,0.0,2.0,57,0.00,,,0.00,Wunderground v.1.15,2013-04-02 05:00:00,
2013-04-02 01:05:00,26.7,13.5,30.07,West,280,1.0,2.0,57,0.00,,,0.00,Wunderground v.1.15,2013-04-02 05:05:00,
2013-04-02 01:15:00,27.3,13.7,30.07,NW,311,1.0,2.0,56,0.00,,,0.00,Wunderground v.1.15,2013-04-02 05:15:00,
2013-04-02 01:25:00,27.8,14.1,30.07,NW,320,1.0,2.0,56,0.00,,,0.00,Wunderground v.1.15,2013-04-02 05:25:00,
2013-04-02 01:30:00,27.9,14.2,30.07,NW,319,1.0,1.0,56,0.00,,,0.00,Wunderground v.1.15,2013-04-02 05:30:00,
2013-04-02 01:35:00,28.1,14.4,30.07,NW,311,1.0,2.0,56,0.00,,,0.00,Wunderground v.1.15,2013-04-02 05:35:00,
2013-04-02 01:40:00,28.2,14.1,30.07,West,275,1.0,1.0,55,0.00,,,0.00,Wunderground v.1.15,2013-04-02 05:40:00,
2013-04-02 01:50:00,28.4,14.3,30.07,NW,316,1.0,2.0,55,0.00,,,0.00,Wunderground v.1.15,2013-04-02 05:50:00,
2013-04-02 01:55:00,28.7,14.6,30.07,WNW,302,1.0,4.0,55,0.00,,,0.00,Wunderground v.1.15,2013-04-02 05:55:00,
2013-04-02 02:00:00,29.1,14.9,30.07,NNW,336,2.0,3.0,55,0.00,,,0.00,Wunderground v.1.15,2013-04-02 06:00:00,
2013-04-02 02:05:00,29.4,15.2,30.07,North,357,3.0,5.0,55,0.00,,,0.00,Wunderground v.1.15,2013-04-02 06:05:00,
2013-04-02 02:15:00,29.5,16.1,30.08,North,4,4.0,8.0,57,0.00,,,0.00,Wunderground v.1.15,2013-04-02 06:15:00,
2013-04-02 02:25:00,29.1,16.9,30.08,North,353,4.0,6.0,60,0.00,,,0.00,Wunderground v.1.15,2013-04-02 06:25:00,
2013-04-02 02:30:00,28.8,17.0,30.08,North,357,3.0,3.0,61,0.00,,,0.00,Wunderground v.1.15,2013-04-02 06:30:00,
2013-04-02 02:35:00,28.8,17.4,30.08,North,3,3.0,8.0,62,0.00,,,0.00,Wunderground v.1.15,2013-04-02 06:35:00,
2013-04-02 02:45:00,28.7,17.3,30.09,North,0,3.0,8.0,62,0.00,,,0.00,Wunderground v.1.15,2013-04-02 06:45:00,
2013-04-02 02:50:00,28.5,17.5,30.09,North,4,3.0,3.0,63,0.00,,,0.00,Wunderground v.1.15,2013-04-02 06:50:00,
2013-04-02 02:55:00,28.4,17.4,30.09,North,0,3.0,8.0,63,0.00,,,0.00,Wunderground v.1.15,2013-04-02 06:55:00,
2013-04-02 03:00:00,28.2,17.2,30.09,NNE,20,3.0,8.0,63,0.00,,,0.00,Wunderground v.1.15,2013-04-02 07:00:00,
2013-04-02 03:05:00,28.1,17.1,30.09,NNW,340,3.0,13.0,63,0.00,,,0.00,Wunderground v.1.15,2013-04-02 07:05:00,
2013-04-02 03:15:00,27.8,16.8,30.09,North,11,4.0,13.0,63,0.00,,,0.00,Wunderground v.1.15,2013-04-02 07:15:00,
2013-04-02 03:20:00,27.6,16.6,30.09,North,11,3.0,3.0,63,0.00,,,0.00,Wunderground v.1.15,2013-04-02 07:20:00,
2013-04-02 03:25:00,27.3,16.4,30.09,North,8,1.0,13.0,63,0.00,,,0.00,Wunderground v.1.15,2013-04-02 07:25:00,
2013-04-02 03:30:00,27.2,16.3,30.10,North,353,1.0,13.0,63,0.00,,,0.00,Wunderground v.1.15,2013-04-02 07:30:00,
2013-04-02 03:35:00,27.0,16.1,30.10,NNW,335,1.0,13.0,63,0.00,,,0.00,Wunderground v.1.15,2013-04-02 07:35:00,
2013-04-02 03:45:00,26.7,16.1,30.09,NNW,346,0.0,13.0,64,0.00,,,0.00,Wunderground v.1.15,2013-04-02 07:45:00,
2013-04-02 03:50:00,26.6,16.1,30.09,NNW,344,0.0,13.0,64,0.00,,,0.00,Wunderground v.1.15,2013-04-02 07:50:00,
2013-04-02 03:55:00,26.4,15.9,30.09,NNW,344,0.0,13.0,64,0.00,,,0.00,Wunderground v.1.15,2013-04-02 07:55:00,
2013-04-02 04:05:00,25.8,15.6,30.10,NNW,346,0.0,13.0,65,0.00,,,0.00,Wunderground v.1.15,2013-04-02 08:05:00,
2013-04-02 04:15:00,25.4,15.6,30.10,NNW,346,0.0,1.0,66,0.00,,,0.00,Wunderground v.1.15,2013-04-02 08:15:00,
2013-04-02 04:25:00,24.7,15.3,30.10,NNW,346,0.0,1.0,67,0.00,,,0.00,Wunderground v.1.15,2013-04-02 08:25:00,
2013-04-02 04:30:00,24.5,15.4,30.10,NNW,346,0.0,1.0,68,0.00,,,0.00,Wunderground v.1.15,2013-04-02 08:30:00,
2013-04-02 04:40:00,24.1,15.7,30.10,NNW,346,0.0,1.0,70,0.00,,,0.00,Wunderground v.1.15,2013-04-02 08:40:00,
2013-04-02 04:45:00,23.9,15.9,30.10,NNW,346,0.0,1.0,71,0.00,,,0.00,Wunderground v.1.15,2013-04-02 08:45:00,
2013-04-02 04:50:00,23.6,15.6,30.10,NNW,346,0.0,1.0,71,0.00,,,0.00,Wunderground v.1.15,2013-04-02 08:50:00,
2013-04-02 04:55:00,23.5,15.8,30.10,NNW,346,0.0,1.0,72,0.00,,,0.00,Wunderground v.1.15,2013-04-02 08:55:00,
2013-04-02 05:05:00,23.0,15.6,30.10,NNW,346,0.0,1.0,73,0.00,,,0.00,Wunderground v.1.15,2013-04-02 09:05:00,
2013-04-02 05:15:00,22.7,15.7,30.10,NNW,344,0.0,0.0,74,0.00,,,0.00,Wunderground v.1.15,2013-04-02 09:15:00,
2013-04-02 05:20:00,22.4,15.4,30.10,NNW,346,0.0,0.0,74,0.00,,,0.00,Wunderground v.1.15,2013-04-02 09:20:00,
2013-04-02 05:25:00,22.7,16.3,30.10,NNW,346,0.0,0.0,76,0.00,,,0.00,Wunderground v.1.15,2013-04-02 09:25:00,
2013-04-02 05:30:00,23.2,17.4,30.10,NNW,346,0.0,0.0,78,0.00,,,0.00,Wunderground v.1.15,2013-04-02 09:30:00,
2013-04-02 05:40:00,24.1,18.8,30.10,NNW,346,0.0,0.0,80,0.00,,,0.00,Wunderground v.1.15,2013-04-02 09:40:00,
2013-04-02 05:45:00,23.6,17.7,30.10,NNW,344,0.0,0.0,78,0.00,,,0.00,Wunderground v.1.15,2013-04-02 09:45:00,
2013-04-02 05:50:00,23.0,16.9,30.10,NNW,346,0.0,0.0,77,0.00,,,0.00,Wunderground v.1.15,2013-04-02 09:50:00,
2013-04-02 06:00:00,21.9,15.8,30.10,NNW,346,0.0,0.0,77,0.00,,,0.00,Wunderground v.1.15,2013-04-02 10:00:00,
2013-04-02 06:05:00,21.4,15.3,30.10,NNW,346,0.0,0.0,77,0.00,,,0.00,Wunderground v.1.15,2013-04-02 10:05:00,
2013-04-02 06:15:00,21.0,14.9,30.10,NNW,344,0.0,0.0,77,0.00,,,0.00,Wunderground v.1.15,2013-04-02 10:15:00,
2013-04-02 06:20:00,21.0,14.9,30.10,NNW,344,0.0,0.0,77,0.00,,,0.00,Wunderground v.1.15,2013-04-02 10:20:00,
2013-04-02 06:25:00,20.8,14.7,30.10,NNW,344,0.0,0.0,77,0.00,,,0.00,Wunderground v.1.15,2013-04-02 10:25:00,
2013-04-02 06:35:00,21.0,14.9,30.11,NNW,344,0.0,0.0,77,0.00,,,0.00,Wunderground v.1.15,2013-04-02 10:35:00,
2013-04-02 06:40:00,21.1,14.7,30.11,WNW,298,0.0,1.0,76,0.00,,,0.00,Wunderground v.1.15,2013-04-02 10:40:00,
2013-04-02 06:45:00,21.4,15.0,30.11,WNW,298,0.0,1.0,76,0.00,,,0.00,Wunderground v.1.15,2013-04-02 10:45:00,
2013-04-02 06:55:00,22.1,15.4,30.11,WNW,288,0.0,0.0,75,0.00,,,0.00,Wunderground v.1.15,2013-04-02 10:55:00,
2013-04-02 07:00:00,21.9,15.2,30.11,WNW,288,0.0,0.0,75,0.00,,,0.00,Wunderground v.1.15,2013-04-02 11:00:00,
2013-04-02 07:05:00,22.1,15.4,30.11,WNW,288,0.0,0.0,75,0.00,,,0.00,Wunderground v.1.15,2013-04-02 11:05:00,
2013-04-02 07:15:00,22.5,15.5,30.12,WNW,288,0.0,0.0,74,0.00,,,0.00,Wunderground v.1.15,2013-04-02 11:15:00,
2013-04-02 07:20:00,22.5,15.1,30.12,WNW,288,0.0,0.0,73,0.00,,,0.00,Wunderground v.1.15,2013-04-02 11:20:00,
2013-04-02 07:25:00,22.4,15.1,30.12,WNW,288,0.0,0.0,73,0.00,,,0.00,Wunderground v.1.15,2013-04-02 11:25:00,
2013-04-02 07:35:00,22.4,15.1,30.12,WNW,288,0.0,0.0,73,0.00,,,0.00,Wunderground v.1.15,2013-04-02 11:35:00,
2013-04-02 07:40:00,22.4,15.4,30.12,WNW,288,0.0,0.0,74,0.00,,,0.00,Wunderground v.1.15,2013-04-02 11:40:00,
2013-04-02 07:45:00,22.5,15.5,30.13,WNW,288,0.0,0.0,74,0.00,,,0.00,Wunderground v.1.15,2013-04-02 11:45:00,
2013-04-02 07:55:00,22.9,15.5,30.13,WNW,288,0.0,0.0,73,0.00,,,0.00,Wunderground v.1.15,2013-04-02 11:55:00,
2013-04-02 08:00:00,23.0,15.6,30.13,WNW,288,0.0,0.0,73,0.00,,,0.00,Wunderground v.1.15,2013-04-02 12:00:00,
2013-04-02 08:05:00,23.5,16.1,30.13,WNW,288,0.0,1.0,73,0.00,,,0.00,Wunderground v.1.15,2013-04-02 12:05:00,
2013-04-02 08:15:00,24.4,16.0,30.13,WNW,288,0.0,2.0,70,0.00,,,0.00,Wunderground v.1.15,2013-04-02 12:15:00,
2013-04-02 08:20:00,24.8,16.4,30.13,WNW,288,0.0,0.0,70,0.00,,,0.00,Wunderground v.1.15,2013-04-02 12:20:00,
2013-04-02 08:30:00,25.7,16.6,30.14,WNW,288,0.0,0.0,68,0.00,,,0.00,Wunderground v.1.15,2013-04-02 12:30:00,
2013-04-02 08:35:00,26.0,16.5,30.14,WNW,288,0.0,1.0,67,0.00,,,0.00,Wunderground v.1.15,2013-04-02 12:35:00,
2013-04-02 08:40:00,26.4,16.6,30.14,WNW,288,0.0,0.0,66,0.00,,,0.00,Wunderground v.1.15,2013-04-02 12:40:00,
2013-04-02 08:50:00,27.9,16.9,30.14,West,268,1.0,3.0,63,0.00,,,0.00,Wunderground v.1.15,2013-04-02 12:50:00,
2013-04-02 08:55:00,28.5,16.7,30.14,West,268,2.0,3.0,61,0.00,,,0.00,Wunderground v.1.15,2013-04-02 12:55:00,
2013-04-02 09:00:00,29.0,16.4,30.14,West,278,2.0,2.0,59,0.00,,,0.00,Wunderground v.1.15,2013-04-02 13:00:00,
2013-04-02 09:05:00,29.7,16.3,30.14,WNW,294,2.0,4.0,57,0.00,,,0.00,Wunderground v.1.15,2013-04-02 13:05:00,
2013-04-02 09:15:00,30.7,16.4,30.14,WNW,284,2.0,6.0,55,0.00,,,0.00,Wunderground v.1.15,2013-04-02 13:15:00,
2013-04-02 09:20:00,31.2,16.0,30.14,WSW,257,3.0,8.0,53,0.00,,,0.00,Wunderground v.1.15,2013-04-02 13:20:00,
2013-04-02 09:30:00,31.9,17.1,30.14,NW,320,3.0,5.0,54,0.00,,,0.00,Wunderground v.1.15,2013-04-02 13:30:00,
2013-04-02 09:35:00,32.2,17.0,30.14,NW,304,3.0,5.0,53,0.00,,,0.00,Wunderground v.1.15,2013-04-02 13:35:00,
2013-04-02 09:40:00,32.7,17.4,30.14,WSW,256,4.0,7.0,53,0.00,,,0.00,Wunderground v.1.15,2013-04-02 13:40:00,
2013-04-02 09:50:00,33.2,16.1,30.14,West,264,4.0,4.0,49,0.00,,,0.00,Wunderground v.1.15,2013-04-02 13:50:00,
2013-04-02 09:55:00,33.1,13.0,30.14,NNW,333,5.0,5.0,43,0.00,,,0.00,Wunderground v.1.15,2013-04-02 13:55:00,
2013-04-02 10:00:00,33.1,13.0,30.14,NW,326,6.0,6.0,43,0.00,,,0.00,Wunderground v.1.15,2013-04-02 14:00:00,
2013-04-02 10:05:00,33.1,12.5,30.14,North,0,5.0,7.0,42,0.00,,,0.00,Wunderground v.1.15,2013-04-02 14:05:00,
2013-04-02 10:15:00,33.5,12.8,30.15,NW,325,6.0,11.0,42,0.00,,,0.00,Wunderground v.1.15,2013-04-02 14:15:00,
2013-04-02 10:25:00,33.8,10.2,30.15,North,357,7.0,16.0,37,0.00,,,0.00,Wunderground v.1.15,2013-04-02 14:25:00,
2013-04-02 10:30:00,33.8,11.4,30.15,NW,326,5.0,5.0,39,0.00,,,0.00,Wunderground v.1.15,2013-04-02 14:30:00,
2013-04-02 10:35:00,34.3,10.7,30.15,West,268,5.0,16.0,37,0.00,,,0.00,Wunderground v.1.15,2013-04-02 14:35:00,
2013-04-02 10:45:00,34.7,11.6,30.15,NW,305,5.0,8.0,38,0.00,,,0.00,Wunderground v.1.15,2013-04-02 14:45:00,
2013-04-02 10:50:00,34.7,9.1,30.15,WNW,287,5.0,5.0,34,0.00,,,0.00,Wunderground v.1.15,2013-04-02 14:50:00,
2013-04-02 10:55:00,34.6,9.7,30.15,WSW,254,7.0,7.0,35,0.00,,,0.00,Wunderground v.1.15,2013-04-02 14:55:00,
2013-04-02 11:00:00,34.9,11.2,30.15,West,277,7.0,16.0,37,0.00,,,0.00,Wunderground v.1.15,2013-04-02 15:00:00,
2013-04-02 11:05:00,34.9,11.2,30.15,WNW,285,6.0,16.0,37,0.00,,,0.00,Wunderground v.1.15,2013-04-02 15:05:00,
2013-04-02 11:15:00,34.1,10.5,30.16,West,274,7.0,13.0,37,0.00,,,0.00,Wunderground v.1.15,2013-04-02 15:15:00,
2013-04-02 11:25:00,34.4,10.2,30.16,WNW,289,7.0,13.0,36,0.00,,,0.00,Wunderground v.1.15,2013-04-02 15:25:00,
2013-04-02 11:30:00,34.6,10.3,30.16,WNW,288,7.0,13.0,36,0.00,,,0.00,Wunderground v.1.15,2013-04-02 15:30:00,
2013-04-02 11:35:00,34.9,10.0,30.16,West,271,6.0,13.0,35,0.00,,,0.00,Wunderground v.1.15,2013-04-02 15:35:00,
2013-04-02 11:40:00,35.3,10.3,30.16,NNW,336,6.0,13.0,35,0.00,,,0.00,Wunderground v.1.15,2013-04-02 15:40:00,
2013-04-02 11:50:00,35.2,10.2,30.16,NNW,332,8.0,8.0,35,0.00,,,0.00,Wunderground v.1.15,2013-04-02 15:50:00,
2013-04-02 12:00:00,35.3,10.3,30.16,NNW,343,6.0,13.0,35,0.00,,,0.00,Wunderground v.1.15,2013-04-02 16:00:00,
2013-04-02 12:05:00,35.0,10.1,30.16,West,260,8.0,20.0,35,0.00,,,0.00,Wunderground v.1.15,2013-04-02 16:05:00,
2013-04-02 12:15:00,35.5,11.8,30.16,North,7,8.0,20.0,37,0.00,,,0.00,Wunderground v.1.15,2013-04-02 16:15:00,
2013-04-02 12:25:00,35.9,9.5,30.16,WNW,296,7.0,13.0,33,0.00,,,0.00,Wunderground v.1.15,2013-04-02 16:25:00,
2013-04-02 12:35:00,35.8,12.0,30.16,WSW,250,7.0,20.0,37,0.00,,,0.00,Wunderground v.1.15,2013-04-02 16:35:00,
2013-04-02 12:40:00,36.0,10.3,30.16,NNW,332,7.0,7.0,34,0.00,,,0.00,Wunderground v.1.15,2013-04-02 16:40:00,
2013-04-02 12:45:00,35.9,11.5,30.16,North,354,7.0,10.0,36,0.00,,,0.00,Wunderground v.1.15,2013-04-02 16:45:00,
2013-04-02 12:55:00,35.9,12.1,30.16,NNW,335,8.0,20.0,37,0.00,,,0.00,Wunderground v.1.15,2013-04-02 16:55:00,
2013-04-02 13:00:00,35.8,12.0,30.16,WNW,302,8.0,8.0,37,0.00,,,0.00,Wunderground v.1.15,2013-04-02 17:00:00,
2013-04-02 13:05:00,36.2,11.1,30.16,West,270,6.0,11.0,35,0.00,,,0.00,Wunderground v.1.15,2013-04-02 17:05:00,
2013-04-02 13:15:00,36.0,11.0,30.16,NNW,337,8.0,21.0,35,0.00,,,0.00,Wunderground v.1.15,2013-04-02 17:15:00,
2013-04-02 13:20:00,36.3,10.6,30.16,NW,322,7.0,21.0,34,0.00,,,0.00,Wunderground v.1.15,2013-04-02 17:20:00,
2013-04-02 13:30:00,35.9,10.9,30.16,WNW,287,8.0,8.0,35,0.00,,,0.00,Wunderground v.1.15,2013-04-02 17:30:00,
2013-04-02 13:35:00,35.9,10.9,30.16,NW,311,8.0,21.0,35,0.00,,,0.00,Wunderground v.1.15,2013-04-02 17:35:00,
2013-04-02 13:40:00,36.2,11.1,30.16,WNW,298,7.0,7.0,35,0.00,,,0.00,Wunderground v.1.15,2013-04-02 17:40:00,
2013-04-02 13:50:00,36.0,10.3,30.16,WNW,294,8.0,8.0,34,0.00,,,0.00,Wunderground v.1.15,2013-04-02 17:50:00,
2013-04-02 13:55:00,36.2,10.5,30.16,NW,313,8.0,21.0,34,0.00,,,0.00,Wunderground v.1.15,2013-04-02 17:55:00,
2013-04-02 14:00:00,36.8,11.0,30.15,NNW,328,7.0,21.0,34,0.00,,,0.00,Wunderground v.1.15,2013-04-02 18:00:00,
2013-04-02 14:05:00,36.2,10.5,30.15,NW,316,7.0,21.0,34,0.00,,,0.00,Wunderground v.1.15,2013-04-02 18:05:00,
2013-04-02 14:15:00,36.0,10.3,30.16,NNW,339,7.0,10.0,34,0.00,,,0.00,Wunderground v.1.15,2013-04-02 18:15:00,
2013-04-02 14:25:00,36.5,10.7,30.16,WSW,258,8.0,14.0,34,0.00,,,0.00,Wunderground v.1.15,2013-04-02 18:25:00,
2013-04-02 14:30:00,36.5,10.7,30.16,WSW,239,8.0,14.0,34,0.00,,,0.00,Wunderground v.1.15,2013-04-02 18:30:00,
2013-04-02 14:35:00,36.2,11.1,30.16,West,265,7.0,14.0,35,0.00,,,0.00,Wunderground v.1.15,2013-04-02 18:35:00,
2013-04-02 14:45:00,36.5,10.1,30.16,North,0,8.0,13.0,33,0.00,,,0.00,Wunderground v.1.15,2013-04-02 18:45:00,
2013-04-02 14:50:00,36.0,10.3,30.16,WSW,247,8.0,8.0,34,0.00,,,0.00,Wunderground v.1.15,2013-04-02 18:50:00,
2013-04-02 14:55:00,35.9,10.2,30.16,West,265,8.0,14.0,34,0.00,,,0.00,Wunderground v.1.15,2013-04-02 18:55:00,
2013-04-02 15:00:00,35.9,9.5,30.16,West,277,8.0,8.0,33,0.00,,,0.00,Wunderground v.1.15,2013-04-02 19:00:00,
2013-04-02 15:05:00,36.5,12.0,30.16,NW,304,8.0,20.0,36,0.00,,,0.00,Wunderground v.1.15,2013-04-02 19:05:00,
2013-04-02 15:15:00,36.2,10.5,30.16,WSW,246,8.0,20.0,34,0.00,,,0.00,Wunderground v.1.15,2013-04-02 19:15:00,
2013-04-02 15:20:00,35.9,11.5,30.16,NNW,332,9.0,20.0,36,0.00,,,0.00,Wunderground v.1.15,2013-04-02 19:20:00,
2013-04-02 15:25:00,36.0,11.6,30.16,West,281,7.0,20.0,36,0.00,,,0.00,Wunderground v.1.15,2013-04-02 19:25:00,
2013-04-02 15:30:00,35.9,11.5,30.16,NW,318,8.0,8.0,36,0.00,,,0.00,Wunderground v.1.15,2013-04-02 19:30:00,
2013-04-02 15:35:00,36.2,10.5,30.16,NW,325,8.0,16.0,34,0.00,,,0.00,Wunderground v.1.15,2013-04-02 19:35:00,
2013-04-02 15:50:00,36.8,12.3,30.16,NW,319,5.0,20.0,36,0.00,,,0.00,Wunderground v.1.15,2013-04-02 19:50:00,
2013-04-02 16:00:00,36.0,12.2,30.16,West,277,6.0,20.0,37,0.00,,,0.00,Wunderground v.1.15,2013-04-02 20:00:00,
2013-04-02 16:05:00,36.5,12.0,30.16,NW,322,6.0,20.0,36,0.00,,,0.00,Wunderground v.1.15,2013-04-02 20:05:00,
2013-04-02 16:15:00,36.5,11.4,30.16,West,261,6.0,16.0,35,0.00,,,0.00,Wunderground v.1.15,2013-04-02 20:15:00,
2013-04-02 16:20:00,36.8,12.3,30.16,West,275,5.0,16.0,36,0.00,,,0.00,Wunderground v.1.15,2013-04-02 20:20:00,
2013-04-02 16:25:00,36.3,12.5,30.16,NW,318,7.0,16.0,37,0.00,,,0.00,Wunderground v.1.15,2013-04-02 20:25:00,
2013-04-02 16:30:00,35.9,11.5,30.16,West,278,8.0,16.0,36,0.00,,,0.00,Wunderground v.1.15,2013-04-02 20:30:00,
2013-04-02 16:40:00,35.8,12.0,30.16,WSW,258,6.0,6.0,37,0.00,,,0.00,Wunderground v.1.15,2013-04-02 20:40:00,
2013-04-02 16:45:00,35.5,11.8,30.16,North,350,6.0,16.0,37,0.00,,,0.00,Wunderground v.1.15,2013-04-02 20:45:00,
2013-04-02 16:50:00,35.9,12.1,30.16,West,281,6.0,6.0,37,0.00,,,0.00,Wunderground v.1.15,2013-04-02 20:50:00,
2013-04-02 16:55:00,36.3,11.9,30.16,North,0,5.0,9.0,36,0.00,,,0.00,Wunderground v.1.15,2013-04-02 20:55:00,
2013-04-02 17:05:00,36.0,11.6,30.17,West,265,7.0,17.0,36,0.00,,,0.00,Wunderground v.1.15,2013-04-02 21:05:00,
2013-04-02 17:15:00,35.8,13.2,30.17,NW,315,6.0,17.0,39,0.00,,,0.00,Wunderground v.1.15,2013-04-02 21:15:00,
2013-04-02 17:25:00,35.6,11.9,30.17,NNW,343,8.0,17.0,37,0.00,,,0.00,Wunderground v.1.15,2013-04-02 21:25:00,
2013-04-02 17:30:00,35.8,12.6,30.17,North,0,7.0,17.0,38,0.00,,,0.00,Wunderground v.1.15,2013-04-02 21:30:00,
2013-04-02 17:35:00,35.8,12.0,30.17,WNW,292,7.0,17.0,37,0.00,,,0.00,Wunderground v.1.15,2013-04-02 21:35:00,
2013-04-02 17:40:00,35.8,12.0,30.17,North,0,7.0,7.0,37,0.00,,,0.00,Wunderground v.1.15,2013-04-02 21:40:00,
2013-04-02 17:50:00,35.8,10.8,30.18,NW,322,6.0,17.0,35,0.00,,,0.00,Wunderground v.1.15,2013-04-02 21:50:00,
2013-04-02 18:00:00,35.8,10.8,30.18,NW,319,7.0,7.0,35,0.00,,,0.00,Wunderground v.1.15,2013-04-02 22:00:00,
2013-04-02 18:05:00,35.8,10.1,30.18,North,356,6.0,16.0,34,0.00,,,0.00,Wunderground v.1.15,2013-04-02 22:05:00,
2013-04-02 18:15:00,35.5,10.5,30.18,NW,318,6.0,16.0,35,0.00,,,0.00,Wunderground v.1.15,2013-04-02 22:15:00,
2013-04-02 18:25:00,36.0,12.2,30.18,WNW,295,5.0,16.0,37,0.00,,,0.00,Wunderground v.1.15,2013-04-02 22:25:00,
2013-04-02 18:30:00,36.0,11.6,30.19,WNW,291,4.0,4.0,36,0.00,,,0.00,Wunderground v.1.15,2013-04-02 22:30:00,
2013-04-02 18:35:00,35.9,11.5,30.19,North,0,4.0,7.0,36,0.00,,,0.00,Wunderground v.1.15,2013-04-02 22:35:00,
2013-04-02 18:45:00,35.5,11.8,30.19,NW,320,5.0,16.0,37,0.00,,,0.00,Wunderground v.1.15,2013-04-02 22:45:00,
2013-04-02 18:50:00,35.2,11.5,30.19,NW,325,5.0,5.0,37,0.00,,,0.00,Wunderground v.1.15,2013-04-02 22:50:00,
2013-04-02 18:55:00,35.2,12.1,30.19,West,281,5.0,12.0,38,0.00,,,0.00,Wunderground v.1.15,2013-04-02 22:55:00,
2013-04-02 19:05:00,34.7,12.2,30.19,North,3,6.0,6.0,39,0.00,,,0.00,Wunderground v.1.15,2013-04-02 23:05:00,
2013-04-02 19:15:00,34.4,12.5,30.20,NW,309,4.0,13.0,40,0.00,,,0.00,Wunderground v.1.15,2013-04-02 23:15:00,
2013-04-02 19:25:00,34.1,12.8,30.20,NW,326,3.0,13.0,41,0.00,,,0.00,Wunderground v.1.15,2013-04-02 23:25:00,
2013-04-02 19:30:00,34.1,12.8,30.20,NNW,332,3.0,13.0,41,0.00,,,0.00,Wunderground v.1.15,2013-04-02 23:30:00,
2013-04-02 19:35:00,34.0,12.7,30.20,NW,323,4.0,13.0,41,0.00,,,0.00,Wunderground v.1.15,2013-04-02 23:35:00,
2013-04-02 19:45:00,33.5,12.3,30.20,NNW,330,4.0,13.0,41,0.00,,,0.00,Wunderground v.1.15,2013-04-02 23:45:00,
2013-04-02 19:50:00,33.4,12.2,30.20,NNW,335,4.0,13.0,41,0.00,,,0.00,Wunderground v.1.15,2013-04-02 23:50:00,
2013-04-02 20:00:00,33.2,12.6,30.20,NNW,328,5.0,5.0,42,0.00,,,0.00,Wunderground v.1.15,2013-04-03 00:00:00,
2013-04-02 20:05:00,33.1,12.5,30.20,NW,312,3.0,11.0,42,0.00,,,0.00,Wunderground v.1.15,2013-04-03 00:05:00,
2013-04-02 20:15:00,32.8,12.2,30.19,NNW,328,4.0,11.0,42,0.00,,,0.00,Wunderground v.1.15,2013-04-03 00:15:00,
2013-04-02 20:20:00,32.7,12.1,30.19,North,349,3.0,3.0,42,0.00,,,0.00,Wunderground v.1.15,2013-04-03 00:20:00,
2013-04-02 20:30:00,32.5,12.5,30.20,NW,325,3.0,3.0,43,0.00,,,0.00,Wunderground v.1.15,2013-04-03 00:30:00,
2013-04-02 20:35:00,32.4,12.4,30.20,NNW,336,1.0,11.0,43,0.00,,,0.00,Wunderground v.1.15,2013-04-03 00:35:00,
2013-04-02 20:40:00,32.1,12.6,30.20,NW,316,1.0,11.0,44,0.00,,,0.00,Wunderground v.1.15,2013-04-03 00:40:00,
2013-04-02 20:50:00,31.8,12.8,30.20,North,354,0.0,11.0,45,0.00,,,0.00,Wunderground v.1.15,2013-04-03 00:50:00,
2013-04-02 20:55:00,31.6,12.7,30.20,NNW,347,0.0,11.0,45,0.00,,,0.00,Wunderground v.1.15,2013-04-03 00:55:00,
2013-04-02 21:05:00,31.2,12.8,30.21,NNW,347,0.0,11.0,46,0.00,,,0.00,Wunderground v.1.15,2013-04-03 01:05:00,
2013-04-02 21:15:00,30.9,13.5,30.21,NNW,347,0.0,3.0,48,0.00,,,0.00,Wunderground v.1.15,2013-04-03 01:15:00,
2013-04-02 21:25:00,30.6,13.2,30.21,NNW,347,0.0,3.0,48,0.00,,,0.00,Wunderground v.1.15,2013-04-03 01:25:00,
2013-04-02 21:30:00,30.4,13.5,30.22,NNW,347,0.0,3.0,49,0.00,,,0.00,Wunderground v.1.15,2013-04-03 01:30:00,
2013-04-02 21:35:00,30.1,12.7,30.22,NNW,347,0.0,3.0,48,0.00,,,0.00,Wunderground v.1.15,2013-04-03 01:35:00,
2013-04-02 21:45:00,30.1,16.3,30.22,NNW,347,0.0,3.0,56,0.00,,,0.00,Wunderground v.1.15,2013-04-03 01:45:00,
2013-04-02 21:50:00,30.1,16.3,30.22,NNW,347,0.0,3.0,56,0.00,,,0.00,Wunderground v.1.15,2013-04-03 01:50:00,
2013-04-02 21:55:00,29.7,15.5,30.22,NNW,347,0.0,3.0,55,0.00,,,0.00,Wunderground v.1.15,2013-04-03 01:55:00,
2013-04-02 22:05:00,29.4,15.6,30.22,NNW,347,0.0,3.0,56,0.00,,,0.00,Wunderground v.1.15,2013-04-03 02:05:00,
2013-04-02 22:15:00,29.1,15.7,30.22,NNW,347,0.0,0.0,57,0.00,,,0.00,Wunderground v.1.15,2013-04-03 02:15:00,
2013-04-02 22:20:00,29.1,16.1,30.22,NNW,347,0.0,0.0,58,0.00,,,0.00,Wunderground v.1.15,2013-04-03 02:20:00,
2013-04-02 22:25:00,29.1,15.7,30.22,NNW,347,0.0,0.0,57,0.00,,,0.00,Wunderground v.1.15,2013-04-03 02:25:00,
2013-04-02 22:35:00,28.8,15.1,30.23,NNW,347,0.0,0.0,56,0.00,,,0.00,Wunderground v.1.15,2013-04-03 02:35:00,
2013-04-02 22:45:00,28.5,15.2,30.23,NNW,347,0.0,0.0,57,0.00,,,0.00,Wunderground v.1.15,2013-04-03 02:45:00,
2013-04-02 22:55:00,28.2,15.3,30.23,NNW,347,0.0,0.0,58,0.00,,,0.00,Wunderground v.1.15,2013-04-03 02:55:00,
2013-04-02 23:00:00,28.1,15.6,30.23,NNW,347,0.0,0.0,59,0.00,,,0.00,Wunderground v.1.15,2013-04-03 03:00:00,
2013-04-02 23:05:00,28.1,15.6,30.23,NNW,347,0.0,0.0,59,0.00,,,0.00,Wunderground v.1.15,2013-04-03 03:05:00,
2013-04-02 23:15:00,27.8,15.7,30.23,NNW,347,0.0,0.0,60,0.00,,,0.00,Wunderground v.1.15,2013-04-03 03:15:00,
2013-04-02 23:20:00,27.5,15.4,30.23,NNW,347,0.0,0.0,60,0.00,,,0.00,Wunderground v.1.15,2013-04-03 03:20:00,
2013-04-02 23:30:00,27.2,15.1,30.23,NNW,347,0.0,0.0,60,0.00,,,0.00,Wunderground v.1.15,2013-04-03 03:30:00,
2013-04-02 23:35:00,27.2,15.1,30.23,NNW,347,0.0,0.0,60,0.00,,,0.00,Wunderground v.1.15,2013-04-03 03:35:00,
2013-04-02 23:45:00,27.0,14.9,30.23,NNW,347,0.0,0.0,60,0.00,,,0.00,Wunderground v.1.15,2013-04-03 03:45:00,
2013-04-02 23:50:00,27.0,14.9,30.23,NNW,347,0.0,0.0,60,0.00,,,0.00,Wunderground v.1.15,2013-04-03 03:50:00,